CAPE
0 671 1845 698 1145 1151 1080 1098 1066 1297 1564 2003 1936 1833 1642 1428 1247 1247 1252 1358 1418 1358 1222 1154 1229 1244 1202 1332 1503 1706 1776 1665 1682 2023 2154 2463 2005 2045 2815 2565 2059 1699 1947
81 799 1902 1676 1140 1049 1032 1049 1028 1038 1053 1196 1538 1718 1406 1410 1430 1456 1440 1378 1364 1280 1403 1431 1618 1456 1665 1322 1149 1410 1772 1410 1714 1696 1874 2212 2261 2104 2155 2174 2141 1786 2111
231 891 1314 1843 1598 1059 1030 1008 1108 925 966 1099 1176 1264 1413 1525 1519 1673 1566 1408 1665 1508 1391 1603 1635 1442 1256 1701 1492 1019 1278 1319 1806 2076 1795 1706 1799 2204 1963 1916 2269 2046 2038
518 928 1038 2065 1867 1138 1100 1152 1283 1286 1196 1068 966 1000 1112 1240 1449 1428 1442 1410 1267 1313 1404 1385 1324 1242 1285 1277 1235 1390 1537 1716 1681 808 728 677 1147 1856 1922 2131 2144 2151 2123
551 812 1162 1892 1354 1078 804 1155 1391 1523 1372 1551 1386 1234 1077 1297 1282 1429 1520 1547 1336 887 676 520 367 239 219 285 473 684 853 959 1324 1458 124 28 374 1275 1874 1949 1720 2229 2064
568 852 1575 1778 874 689 684 1166 1585 1424 1511 1489 1450 1451 1384 1410 1404 1380 1266 1003 763 591 460 275 212 236 296 449 486 326 362 491 670 750 633 185 38 279 1612 1900 1903 1887 2089
679 999 1433 2426 1578 996 821 1328 1623 1500 1381 1355 1407 1466 1488 1389 1075 872 731 562 398 333 333 382 421 510 706 951 1084 1179 1203 843 478 280 332 282 4 95 1155 2099 2167 1951 2016
601 969 1582 1953 1568 990 1150 1239 1502 1478 1249 1243 1174 1405 1360 1025 653 379 377 467 590 690 701 759 886 1059 1268 1506 1654 1678 1635 1476 983 757 548 240 183 491 710 1345 2123 2029 1938
508 893 1291 1241 1159 1045 1375 1174 1367 1096 1191 1484 1252 1160 861 476 401 526 572 639 757 940 1227 1464 1672 1835 1966 2000 2048 2068 2075 1973 1738 1524 1192 773 399 806 1169 1454 1711 2090 1714
441 872 1120 1141 1100 742 941 915 1156 1236 1053 1016 922 750 643 590 685 788 1399 1610 1402 1587 1754 2085 2116 2256 2641 2449 2447 2447 2354 2297 2174 1635 1575 1317 1227 1376 1550 1683 1856 1881 2122
164 740 1033 1080 1035 828 1270 1129 1573 1293 900 675 628 757 706 720 630 768 873 1443 1742 2160 2081 2484 2690 2743 2864 2744 2541 2530 2375 2242 1918 1794 1641 1558 1915 1758 1854 1495 1586 1770 2295
1 419 817 983 932 859 1248 900 773 530 702 830 882 841 771 799 711 897 1120 1398 1705 2059 1945 2169 2206 2467 2255 2197 2149 2198 2386 1938 1883 1719 1717 1765 2188 1972 2162 2070 1746 1695 1790
0 236 561 780 870 768 1129 1063 928 983 987 964 861 764 688 510 352 365 477 614 563 785 1480 1827 1548 1185 1142 1418 1636 1361 1027 1010 1331 1653 1547 2063 2328 2331 2617 2599 2127 1835 1829
51 153 391 577 708 677 910 954 1006 930 867 645 606 519 394 234 168 301 476 601 855 1001 1355 1458 1087 885 531 554 950 959 895 815 629 547 1067 1728 2396 2309 2393 2849 2594 2214 1608
93 148 234 427 495 471 684 787 604 575 593 545 394 316 229 103 15 201 423 870 976 1200 1383 1559 1272 1013 732 581 460 552 1008 1100 900 1038 1260 1527 2237 2624 2761 2752 2237 1702 1572
144 187 151 265 308 291 294 468 437 228 229 331 162 78 92 56 40 37 360 649 764 1102 1478 1313 1529 996 968 661 767 926 1056 1238 1316 1462 1677 1423 1660 2641 2819 2530 2075 1815 1729
185 211 231 175 156 164 116 123 161 16 16 99 159 150 159 214 263 376 399 482 740 1134 1610 1222 1151 1113 955 866 1039 761 653 1044 1263 1204 838 791 2271 2536 2317 2197 2090 2051 1776
207 235 270 288 158 185 198 178 166 161 96 125 212 255 288 212 285 484 651 788 845 1532 1275 1419 1269 1094 958 875 539 473 413 678 561 913 651 526 713 1398 2344 2116 1794 1853 1761
240 228 312 370 157 192 226 256 248 257 265 264 154 256 306 270 473 582 705 995 1100 1409 1236 1248 1061 881 777 663 597 528 423 417 470 644 952 1145 749 1158 1128 1813 1953 1833 1450
323 299 352 336 110 142 211 251 281 292 315 338 275 335 259 325 525 590 678 984 1420 1651 1245 1016 712 663 628 699 693 1153 644 538 324 289 403 653 633 987 869 905 1687 1828 1926
306 299 349 326 164 153 174 234 275 301 327 399 487 425 353 383 517 870 973 1319 1439 1607 1262 1253 950 722 752 794 739 665 445 289 251 123 182 294 524 507 667 878 1065 907 1145
125 116 148 179 175 193 212 229 287 325 342 407 493 436 332 298 334 735 1186 1331 1286 1416 1296 1082 838 522 447 599 658 459 243 183 150 9 3 123 313 388 143 651 1013 1013 1061
189 191 181 194 190 171 232 252 310 401 386 454 578 554 473 386 444 994 1305 1256 1264 1152 1303 1123 857 690 856 563 689 574 396 201 210 72 17 0 18 85 99 229 393 915 964
209 255 283 255 272 247 200 267 375 460 508 483 566 515 357 288 677 1181 1274 1233 1454 1313 1346 1204 1030 818 719 747 497 499 450 550 503 174 47 16 6 7 5 19 121 271 717
423 248 287 372 437 342 302 312 407 495 545 556 618 593 213 313 641 1103 1454 1214 1314 1371 1450 1138 1148 979 975 622 768 558 564 560 527 332 254 59 29 19 0 0 20 105 442
701 641 411 339 435 544 484 396 440 462 531 578 686 593 283 433 639 815 1354 1388 1396 1399 1488 1312 1288 1115 1063 1079 676 566 629 662 364 332 300 280 178 276 207 187 213 348 570
CIN
-0 -13 -0 -6 -0 -0 -0 -0 -2 -0 -0 -0 -0 -0 -0 -2 -3 -4 -5 -1 -0 -7 -16 -17 -13 -16 -16 -13 -8 -2 -0 -2 -1 -0 -0 -0 -0 -0 -0 -0 -0 -0 -0
-259 -28 -0 -0 -0 -2 -0 -1 -1 -1 -3 -1 -0 -0 -0 -0 -0 -0 -0 -3 -2 -10 -7 -6 -4 -8 -2 -10 -10 -2 -0 -1 -0 -0 -0 -0 -0 -0 -0 -0 -0 -1 -0
-180 -27 -1 -0 -0 -5 -4 -3 -1 -4 -8 -5 -3 -0 -0 -0 -0 -0 -0 -0 -0 -0 -0 -0 -0 -0 -2 -0 -0 -7 -0 -0 -0 -2 -2 -0 -1 -0 -2 -0 -0 -0 -0
-127 -31 -5 -0 -0 -5 -6 -2 -0 -0 -2 -5 -5 -2 -0 -0 -0 -0 -0 -0 -0 -0 -0 -0 -1 -1 -0 -0 -0 -0 -0 -1 -2 -20 -28 -28 -12 -0 -0 -0 -0 -0 -0
-112 -50 -2 -0 -1 -6 -17 -3 -0 -0 -0 -0 -0 -0 -0 -0 -0 -0 -0 -0 -0 -2 -18 -33 -53 -73 -82 -70 -48 -29 -8 -7 -1 -4 -99 -153 -28 -7 -0 -0 -2 -0 -0
-105 -53 -2 -0 -17 -27 -17 -3 -0 -0 -0 -0 -0 -0 -0 -0 -0 -0 -0 -3 -21 -28 -35 -67 -82 -65 -54 -35 -28 -52 -50 -33 -19 -25 -46 -82 -192 -53 -5 -0 -0 -0 -0
-76 -22 -1 -0 -0 -12 -17 -0 -0 -0 -0 -0 -0 -0 -0 -0 -7 -25 -34 -42 -58 -74 -64 -56 -56 -38 -19 -5 -0 -0 -0 -4 -36 -73 -76 -102 -44 -41 -17 -2 -0 -1 -1
-110 -23 -0 -0 -1 -15 -5 -0 -0 -0 -0 -1 -2 -0 -0 -6 -33 -67 -75 -58 -41 -33 -30 -27 -20 -12 -4 -0 -0 -0 -0 -0 -4 -37 -39 -101 -121 -71 -42 -10 -2 -1 -1
-126 -64 -11 -8 -15 -18 -4 -5 -0 -8 -3 -0 -0 -2 -17 -46 -55 -49 -46 -41 -34 -19 -11 -0 -0 -0 -0 -0 -0 -0 -0 -0 -1 -12 -29 -59 -86 -42 -21 -13 -5 -3 -6
-135 -57 -33 -28 -29 -52 -20 -17 -6 -5 -8 -10 -13 -22 -28 -38 -37 -31 -5 -5 -14 -11 -14 -9 -10 -3 -0 -0 -0 -0 -0 -0 -1 -11 -17 -47 -43 -37 -18 -14 -9 -9 -2
-250 -54 -30 -29 -38 -57 -12 -15 -2 -3 -19 -34 -36 -23 -28 -33 -51 -51 -56 -26 -19 -8 -13 -6 -6 -6 -4 -1 -2 -0 -0 -10 -15 -21 -35 -54 -31 -30 -22 -19 -12 -9 -2
-83 -164 -68 -47 -50 -49 -14 -41 -51 -75 -50 -37 -34 -37 -42 -44 -65 -76 -63 -44 -27 -20 -16 -15 -15 -10 -10 -27 -25 -6 -11 -25 -34 -50 -66 -66 -40 -39 -27 -33 -29 -15 -7
-0 -288 -134 -82 -64 -70 -28 -35 -44 -40 -38 -41 -55 -69 -77 -102 -128 -169 -159 -144 -163 -141 -82 -69 -81 -93 -92 -61 -46 -53 -82 -92 -86 -71 -77 -58 -48 -39 -24 -20 -26 -21 -9
-256 -382 -234 -150 -107 -103 -66 -58 -51 -55 -69 -95 -103 -114 -127 -151 -12 -18 -20 -35 -79 -78 -125 -134 -76 -49 -45 -170 -121 -119 -130 -154 -173 -157 -125 -70 -38 -43 -28 -16 -15 -12 -12
-263 -432 -351 -250 -201 -188 -120 -96 -119 -133 -133 -131 -162 -186 -197 -222 -271 -28 -61 -156 -118 -84 -124 -126 -74 -45 -51 -36 -50 -176 -132 -121 -161 -102 -120 -88 -54 -46 -29 -19 -19 -12 -5
-439 -393 -447 -375 -328 -303 -281 -188 -173 -238 -244 -204 -229 -87 -93 -114 -109 -101 -205 -59 -16 -134 -126 -100 -126 -62 -49 -54 -121 -145 -133 -132 -139 -140 -122 -130 -112 -59 -37 -23 -18 -16 -12
-479 -231 -403 -479 -488 -442 -441 -387 -326 -444 -407 -135 -84 -63 -62 -62 -47 -13 -217 -194 -25 -147 -119 -63 -72 -93 -83 -191 -164 -97 -185 -135 -114 -136 -148 -78 -76 -51 -53 -45 -23 -12 -16
-455 -261 -225 -263 -228 -186 -152 -134 -121 -110 -121 -130 -88 -76 -63 -77 -225 -222 -154 -181 -19 -111 -42 -117 -63 -44 -61 -58 -110 -186 -208 -171 -184 -144 -115 -87 -73 -104 -42 -51 -49 -32 -8
-453 -296 -240 -256 -286 -185 -155 -132 -103 -81 -62 -62 -151 -86 -99 -194 -242 -220 -202 -169 -152 -121 -55 -58 -38 -35 -38 -47 -55 -39 -44 -36 -87 -78 -145 -127 -182 -107 -102 -67 -64 -46 -29
-408 -356 -276 -255 -232 -162 -128 -110 -99 -89 -75 -66 -114 -108 -129 -118 -122 -236 -228 -189 -142 -114 -55 -35 -31 -114 -190 -177 -152 -105 -98 -65 -71 -85 -216 -161 -147 -124 -129 -104 -72 -56 -32
-456 -404 -357 -293 -265 -206 -145 -122 -95 -101 -90 -79 -145 -145 -138 -98 -233 -227 -211 -182 -155 -140 -42 -17 -12 -51 -179 -147 -103 -85 -85 -79 -61 -65 -103 -111 -99 -66 -157 -108 -111 -121 -86
-305 -273 -422 -349 -321 -235 -178 -140 -112 -92 -99 -81 -126 -155 -144 -174 -107 -226 -202 -188 -191 -154 -61 -37 -44 -116 -237 -180 -72 -64 -189 -252 -44 -14 -136 -100 -127 -80 -154 -148 -117 -114 -114
-258 -273 -270 -229 -220 -286 -206 -157 -315 -252 -255 -156 -130 -145 -143 -127 -283 -195 -200 -118 -41 -98 -50 -29 -27 -34 -123 -111 -106 -67 -80 -82 -77 -86 -71 -0 -242 -126 -127 -223 -213 -117 -81
-279 -260 -264 -254 -205 -197 -210 -441 -431 -330 -281 -257 -84 -84 -161 -383 -243 -172 -198 -160 -54 -23 -28 -30 -20 -6 -23 -128 -101 -87 -72 -46 -38 -86 -84 -76 -98 -35 -405 -400 -315 -229 -169
-77 -253 -225 -90 -82 -163 -175 -598 -404 -311 -232 -166 -82 -76 -193 -314 -290 -182 -176 -156 -79 -27 -26 -25 -32 -20 -11 -20 -119 -96 -54 -55 -42 -40 -105 -108 -133 -394 -10 -0 -381 -82 -87
-50 -38 -29 -140 -57 -57 -53 -184 -403 -266 -247 -152 -88 -103 -269 -203 -118 -61 -184 -167 -95 -57 -24 -27 -40 -29 -32 -16 -23 -122 -55 -18 -29 -21 -24 -166 -85 -215 -182 -220 -272 -280 -231
Wind_Speed
nan 13 15 13 11 10 10 10 11 11 9 9 10 12 12 11 9 6 7 6 6 6 6 5 3 2 2 3 4 4 5 5 5 7 7 7 8 9 13 11 11 8 7
nan 14 17 15 13 13 13 13 13 14 13 11 12 12 13 12 11 7 6 6 6 6 6 5 4 2 2 3 4 2 2 2 4 5 4 3 6 7 10 11 9 7 7
15 15 17 16 16 15 16 16 15 16 15 13 13 13 13 13 12 10 7 7 6 7 6 6 5 5 3 2 2 3 3 2 4 8 5 3 2 6 1 3 6 6 6
11 12 14 17 16 16 17 17 16 17 18 17 15 14 15 14 12 12 11 10 8 6 7 7 6 6 5 3 3 4 4 3 7 7 5 3 1 5 5 6 3 5 4
8 10 14 17 17 18 18 19 19 18 18 20 18 17 16 14 14 14 13 11 10 9 11 10 9 8 8 4 4 5 5 4 6 5 5 nan 4 4 3 5 7 8 7
4 6 14 17 18 18 18 20 21 20 19 18 19 19 17 15 16 17 17 16 15 13 14 14 14 12 11 10 10 11 10 11 13 9 10 9 nan 10 7 7 5 7 11
3 6 12 16 16 17 18 19 19 18 18 19 18 19 19 16 15 17 17 17 17 16 16 17 18 16 15 13 14 15 17 15 12 10 11 11 nan nan 16 13 14 13 13
7 7 11 14 16 17 17 19 19 17 18 19 19 18 19 17 17 17 17 18 19 18 18 18 20 19 17 15 16 17 16 14 15 11 11 13 17 17 16 14 16 16 14
6 7 9 10 14 17 16 18 19 18 18 17 17 19 18 17 17 16 17 17 21 17 19 20 20 19 20 17 18 18 19 20 13 12 14 14 19 20 20 20 18 17 14
4 5 7 8 9 10 11 16 18 16 17 18 18 20 19 18 17 18 16 16 16 16 19 24 19 21 20 19 19 19 20 19 14 13 13 13 18 21 18 21 21 19 18
6 5 6 7 7 7 7 10 13 16 17 17 18 20 18 11 13 14 17 17 17 25 23 20 19 18 19 17 16 16 18 11 13 12 11 16 17 16 15 9 12 15 15
nan 8 6 7 7 6 7 5 7 9 10 9 10 10 10 11 12 14 16 19 19 20 16 14 15 14 16 10 9 13 8 10 10 11 11 18 18 18 16 12 12 11 11
nan 10 9 6 6 6 6 4 4 4 6 7 8 7 8 8 8 9 8 10 8 13 12 11 9 6 8 8 8 6 8 6 5 6 9 12 13 15 14 13 15 12 9
nan 11 9 8 7 6 3 3 2 3 4 4 6 5 3 4 4 5 5 9 9 7 8 8 7 6 6 6 4 3 3 2 1 2 4 9 10 12 11 11 14 15 9
nan 14 12 10 8 6 4 2 2 4 3 3 3 4 2 2 nan 1 3 4 4 3 5 7 4 4 4 4 1 1 1 3 4 5 3 5 6 8 7 12 16 18 6
19 17 15 14 12 8 5 3 2 3 4 4 3 nan nan nan nan nan 3 3 2 1 3 3 4 0 3 1 2 2 5 4 2 5 6 5 3 4 8 11 13 14 7
20 18 19 17 16 14 11 7 4 nan nan nan 5 4 3 4 3 2 1 1 2 2 1 4 4 2 1 1 2 6 2 2 4 13 14 12 12 9 7 9 8 8 7
21 22 18 16 17 15 14 11 9 8 nan 6 6 7 6 5 5 5 6 3 6 4 6 5 7 7 3 5 7 5 7 4 3 6 5 13 15 12 7 7 7 3 4
29 24 21 20 21 18 14 11 10 13 13 11 11 8 7 8 8 7 8 7 10 8 8 7 9 10 9 8 9 9 9 10 3 6 7 10 11 16 13 6 6 5 2
30 25 23 22 21 20 15 12 14 15 14 14 11 12 10 10 10 11 8 8 12 14 13 13 10 11 10 13 11 9 9 11 11 11 9 11 12 13 16 10 9 8 5
29 30 29 25 22 14 16 16 12 13 13 14 14 13 15 15 13 13 12 12 15 13 16 16 13 11 11 16 13 13 12 13 14 15 14 13 12 9 13 9 10 10 9
29 30 29 30 29 25 15 15 12 13 14 14 15 16 15 15 14 15 15 16 18 17 15 16 15 16 13 15 17 15 12 14 14 nan nan 12 10 9 9 11 11 9 9
30 33 31 30 29 28 27 13 11 12 13 15 14 15 12 13 13 17 17 18 19 20 16 16 16 16 15 14 14 17 17 16 14 nan nan nan nan nan nan 9 11 10 9
31 31 33 33 30 24 23 23 22 16 16 14 14 15 16 16 14 17 18 20 20 24 18 17 18 15 19 16 17 16 18 20 19 17 nan nan nan nan nan nan 13 11 13
26 27 30 31 33 27 25 23 21 17 14 13 16 15 15 17 16 16 18 21 22 24 22 22 22 20 20 22 22 22 21 21 19 21 16 nan nan nan nan nan nan 13 16
22 27 31 34 29 33 30 27 24 23 18 17 16 17 17 19 21 19 19 21 21 25 25 26 25 24 25 25 24 24 25 23 24 26 22 21 18 14 14 15 15 16 19
Wind_Direction
nan 50 21 25 24 29 30 28 22 20 13 11 11 11 15 17 18 31 46 51 59 58 49 58 74 123 163 162 163 169 205 211 224 251 250 262 257 243 241 240 246 252 283
nan 40 27 36 30 35 35 35 34 26 18 16 19 20 23 25 29 41 55 64 68 63 47 56 82 93 159 189 199 209 248 237 282 270 247 292 297 291 264 252 255 242 263
17 46 48 41 39 38 46 42 40 34 27 26 27 25 28 29 36 47 48 52 56 58 45 45 63 60 70 184 243 320 324 297 274 239 257 221 223 313 58 310 269 275 274
19 50 58 45 45 40 45 47 43 42 37 33 28 30 31 32 34 41 41 38 47 45 46 58 63 60 58 75 45 25 46 22 310 239 239 262 291 14 60 45 24 312 329
34 66 61 33 39 45 49 48 46 43 38 36 35 34 36 42 43 47 48 46 48 53 62 74 65 61 61 74 69 59 38 51 91 91 37 nan 48 86 48 17 34 352 13
65 76 52 36 37 45 53 53 52 51 45 42 41 39 47 55 59 57 56 55 60 64 76 72 70 69 70 74 76 71 64 90 60 67 51 61 nan 59 71 47 26 18 6
63 83 53 34 41 47 54 60 58 51 49 48 50 50 56 65 65 63 65 61 62 73 71 75 70 66 68 67 64 68 62 64 74 58 54 50 nan nan 61 53 42 34 26
39 69 72 33 40 47 52 62 60 53 52 51 54 60 64 65 63 65 73 72 63 69 71 70 69 68 65 64 62 59 61 61 66 60 52 53 49 48 54 55 39 31 45
39 40 59 64 52 48 54 62 59 56 56 55 60 65 69 72 73 75 80 86 73 69 72 65 60 63 66 61 64 68 69 68 65 69 62 55 54 53 54 48 43 34 54
50 54 70 71 65 65 75 62 62 68 67 64 67 68 71 78 82 83 83 81 84 66 90 74 57 54 60 60 65 68 68 70 68 61 59 55 50 49 48 40 41 35 51
65 79 74 72 68 61 70 89 72 75 76 77 74 75 76 79 84 87 89 96 78 69 76 79 76 63 57 63 67 73 73 70 62 57 51 49 55 65 60 56 34 33 38
nan 49 50 54 57 65 62 85 110 108 107 99 90 83 89 80 77 79 82 88 88 87 83 84 79 79 72 66 65 77 76 69 62 52 41 45 51 54 63 55 33 20 35
nan 35 31 32 35 39 71 79 117 127 121 121 104 87 93 91 82 81 78 83 83 87 87 80 80 70 78 72 81 87 67 62 65 64 59 47 50 58 59 47 22 10 21
nan 21 16 9 4 20 50 32 32 81 89 106 104 89 85 112 108 96 70 74 70 61 96 70 50 70 59 96 82 98 95 179 211 77 38 63 66 62 60 37 11 354 341
nan 10 7 351 0 6 12 15 14 19 42 37 67 65 44 75 nan 143 115 99 90 74 86 88 75 51 73 73 113 303 239 243 209 255 281 47 59 56 42 5 358 355 332
20 14 359 352 343 335 350 312 329 308 356 340 25 nan nan nan nan nan 68 101 166 144 22 85 87 57 75 90 238 273 104 293 332 236 247 255 164 40 344 349 5 12 42
34 16 3 358 347 339 339 329 306 nan nan nan 329 8 14 340 3 359 340 141 245 245 290 326 291 274 165 304 320 304 265 355 299 228 252 258 250 269 313 321 1 19 42
37 34 21 0 354 351 345 323 303 294 nan 281 282 283 310 322 313 302 295 318 292 283 279 306 280 288 294 299 280 255 253 266 331 248 266 262 242 245 268 308 333 353 53
28 25 22 13 10 360 346 322 300 287 280 272 268 277 292 295 302 302 293 301 295 275 284 289 277 285 282 282 284 283 292 291 311 272 288 337 321 230 223 249 297 305 21
15 15 14 14 13 1 351 321 303 296 296 290 294 294 298 293 298 291 290 289 282 277 284 283 274 284 282 288 264 267 290 297 307 299 302 328 324 264 223 220 249 253 301
12 8 8 5 11 353 348 342 322 326 304 292 293 295 288 283 288 293 287 278 279 279 280 292 286 279 290 288 273 258 275 300 314 310 308 315 320 305 245 227 240 241 250
13 12 9 10 359 3 3 351 335 321 306 298 287 283 288 290 290 288 287 282 290 283 284 289 281 272 276 285 271 269 259 271 271 nan nan 308 316 327 254 240 236 238 242
14 13 7 6 0 358 360 341 306 297 293 299 291 280 296 297 292 290 289 288 291 287 291 297 285 293 284 279 281 262 276 279 263 nan nan nan nan nan nan 247 264 246 244
15 0 9 359 359 355 349 348 359 352 340 336 304 295 291 295 294 294 297 298 299 292 294 295 289 284 283 284 276 281 278 283 278 260 nan nan nan nan nan nan 261 242 244
4 359 351 1 354 351 350 351 348 350 345 307 302 307 307 301 301 299 300 301 297 290 294 297 291 291 285 281 278 276 279 285 279 284 273 nan nan nan nan nan nan 245 230
349 342 340 340 348 352 352 346 344 351 342 323 313 308 310 308 307 311 315 307 303 303 305 303 304 301 297 286 284 292 289 290 287 289 292 281 276 273 284 277 260 250 247